Location: Kergonan
(48.2337°N, 4.5518°W)
Time: 18:40:27
(UTC+00:00)

Cosmos 1610 Rocket - Pass Details

Date: 18 January 2020
Orbit: 954 x 1001 km, 82.9° (Epoch: 28 February)

Event Time Altitude Azimuth Distance (km) Brightness Sun altitude
Rises 05:36:25 0° 349° (N) 3,673 7.4 -23.8°
Reaches altitude 10° 05:38:55 10° 349° (NNW) 2,728 6.7 -23.4°
Maximum altitude 05:45:10 78° 264° (W) 1,007 4.4 -22.3°
Drops below altitude 10° 05:51:27 10° 179° (S) 2,743 6.9 -21.3°
Sets 05:53:58 0° 178° (S) 3,693 7.7 -20.9°
